TimeCDT,TemperatureF,Dew PointF,Humidity,Sea Level PressureIn,VisibilityMPH,Wind Direction,Wind SpeedMPH,Gust SpeedMPH,PrecipitationIn,Events,Conditions,WindDirDegrees,DateUTC
12:53 AM,75.0,73.9,96,30.04,6.0,Calm,Calm,-,N/A,,Clear,0,2013-09-05 05:53:00
1:53 AM,75.0,73.0,94,30.04,6.0,Calm,Calm,-,N/A,,Clear,0,2013-09-05 06:53:00
2:53 AM,73.9,73.0,97,30.04,8.0,Calm,Calm,-,N/A,,Clear,0,2013-09-05 07:53:00
3:53 AM,73.9,73.0,97,30.04,7.0,Calm,Calm,-,N/A,,Clear,0,2013-09-05 08:53:00
4:53 AM,73.9,72.0,93,30.05,6.0,Calm,Calm,-,N/A,,Clear,0,2013-09-05 09:53:00
5:53 AM,73.0,72.0,96,30.06,7.0,ENE,3.5,-,N/A,,Clear,60,2013-09-05 10:53:00
6:53 AM,73.0,72.0,96,30.07,5.0,Calm,Calm,-,N/A,,Clear,0,2013-09-05 11:53:00
7:53 AM,75.0,73.9,96,30.09,7.0,NE,3.5,-,N/A,,Scattered Clouds,50,2013-09-05 12:53:00
8:53 AM,80.1,73.9,81,30.10,10.0,NE,3.5,-,N/A,,Scattered Clouds,40,2013-09-05 13:53:00
9:53 AM,84.0,73.9,72,30.11,10.0,Calm,Calm,-,N/A,,Clear,0,2013-09-05 14:53:00
10:53 AM,87.1,75.0,67,30.11,10.0,ENE,4.6,-,N/A,,Clear,70,2013-09-05 15:53:00
11:53 AM,89.1,75.0,63,30.10,10.0,East,4.6,-,N/A,,Scattered Clouds,90,2013-09-05 16:53:00
12:53 PM,90.0,73.0,57,30.08,10.0,Calm,Calm,-,N/A,,Mostly Cloudy,0,2013-09-05 17:53:00
1:53 PM,91.0,73.0,55,30.05,10.0,NNE,5.8,-,N/A,,Mostly Cloudy,30,2013-09-05 18:53:00
2:53 PM,87.1,73.9,65,30.04,10.0,North,8.1,-,N/A,,Mostly Cloudy,10,2013-09-05 19:53:00
3:53 PM,89.1,73.0,59,30.03,10.0,Calm,Calm,-,N/A,,Partly Cloudy,0,2013-09-05 20:53:00
4:23 PM,78.8,73.4,83,30.05,1.5,East,18.4,23.0,0.01,Rain,Heavy Rain,80,2013-09-05 21:23:00
4:28 PM,77.0,73.4,89,30.05,0.8,East,10.4,23.0,0.18,Rain,Heavy Rain,100,2013-09-05 21:28:00
4:39 PM,77.0,73.4,89,30.04,2.0,SSW,5.8,-,0.36,Rain,Light Rain,200,2013-09-05 21:39:00
4:53 PM,79.0,75.0,88,30.04,10.0,Calm,Calm,-,0.36,,Mostly Cloudy,0,2013-09-05 21:53:00
5:53 PM,80.1,77.0,90,30.04,10.0,SE,6.9,-,0.00,,Partly Cloudy,130,2013-09-05 22:53:00
6:53 PM,81.0,73.9,79,30.04,10.0,SSE,4.6,-,N/A,,Clear,150,2013-09-05 23:53:00
7:53 PM,80.1,75.9,87,30.04,10.0,East,3.5,-,N/A,,Mostly Cloudy,100,2013-09-06 00:53:00
8:53 PM,78.1,75.9,93,30.07,10.0,East,4.6,-,N/A,,Clear,90,2013-09-06 01:53:00
9:53 PM,77.0,75.0,94,30.08,10.0,Calm,Calm,-,N/A,,Clear,0,2013-09-06 02:53:00
10:53 PM,77.0,73.9,90,30.08,10.0,Calm,Calm,-,N/A,,Clear,0,2013-09-06 03:53:00
11:53 PM,75.0,73.9,96,30.07,10.0,ENE,5.8,-,N/A,,Clear,70,2013-09-06 04:53:00